Location: Rumah Sambob
(2.9167°N, 113.9167°E)
Time: 19:21:42
(UTC+00:00)

Ariane H10+ - Visible Passes

Search period start: 26 September 2020 00:00
Search period end: 06 October 2020 00:00
Orbit: 156 x 655 km, 4.0° (Epoch: 22 September)

Date Brightness Start Highest point End Pass type
(mag) Time Alt. Az. Time Alt. Az. Time Alt. Az.
26 Sep 0.1 10:54:33 10° W 10:56:03 53° N 10:56:42 27° ENE visible
26 Sep 3.4 20:44:13 33° S 20:44:22 33° S 20:48:24 10° ESE visible
27 Sep 3.6 11:24:34 10° W 11:24:50 13° W 11:24:50 13° W visible
27 Sep 3.5 21:11:18 21° SW 21:13:20 31° S 21:17:13 10° ESE visible
28 Sep 5.1 20:04:20 14° SE 20:04:20 14° SE 20:05:04 10° ESE visible
28 Sep 3.6 21:35:52 10° WSW 21:39:29 31° S 21:43:16 10° ESE visible
29 Sep -0.3 10:39:07 10° W 10:40:39 68° N 10:42:02 11° E visible
29 Sep 4.2 20:26:27 22° SE 20:26:27 22° SE 20:28:30 10° ESE visible
30 Sep -0.6 11:01:01 10° W 11:02:34 87° S 11:02:38 78° ESE visible
30 Sep 3.4 20:46:00 27° S 20:46:00 27° S 20:49:13 10° ESE visible
01 Oct 3.2 11:20:11 10° W 11:20:42 17° W 11:20:42 17° W visible
01 Oct 3.3 21:03:01 24° SSW 21:03:59 27° S 21:07:12 10° ESE visible
02 Oct 3.2 21:17:31 17° SW 21:19:19 29° S 21:22:28 10° ESE visible
03 Oct 3.0 21:29:29 12° SW 21:31:56 30° S 21:35:01 10° ESE visible
04 Oct 2.8 21:39:08 10° WSW 21:41:52 33° S 21:44:52 10° ESE visible
05 Oct 2.5 21:46:28 10° WSW 21:49:06 37° S 21:52:01 10° ESE visible
